Torna al catalogo

ARIANE 5 DEB

SYLDA

AttivoGTO
NORAD 28887·DEBRIS·🇫🇷 France

Lanciato Oct 13, 2005 da Guiana Space Centre

Loading…

TLE

In scadenzaSource: Space-Track

Epoca: Sep 14, 2026, 13:09 UTC

1 28887U 05041D   26257.54835354  .00000024  00000-0  13172-2 0  9994
2 28887   7.0956 119.5670 7160657 182.7531 168.5993  2.27530480173036

Traccia ARIANE 5 DEB in tempo reale con AllMySat

Download on the App Store